Skip Page Navigation
NASA JPL Caltech
NASA Logo - Jet Propulsion Laboratory + View the NASA Portal
+ Center for Near-Earth Object Studies
JPL Home Earth Solar System Stars & Galaxies Technology
JPL Solar System Dynamics
BODIES ORBITS EPHEMERIDES TOOLS PHYSICAL DATA DISCOVERY FAQ SITE MAP
IMPORTANT: The SSD Announcement email list is now available. Major changes are coming in the near future, including possible hostname and/or URL changes. To be notified of such changes, subscribe to this email list.

Please visit this page for more details.


JPL Small-Body Database Browser
Search: [ help ]  
172715 (2004 BP67)
Classification: Main-belt Asteroid          SPK-ID: 2172715
Ephemeris | Orbit Diagram | Orbital Elements | Mission Design | Physical Parameters | Discovery Circumstances | Close-Approach Data ]

[ show orbit diagram ]
Orbital Elements at Epoch 2459000.5 (2020-May-31.0) TDB
Reference: JPL 11 (heliocentric ecliptic J2000)
 Element Value Uncertainty (1-sigma)   Units 
e .01821973660300649 6.4586e-08  
a 2.809884441516771 2.5786e-08 au
q 2.75868908710745 1.8704e-07 au
i 1.92882324261813 5.091e-06 deg
node 298.7623505763844 0.00020709 deg
peri 46.07042344410503 0.00025076 deg
M 305.8814148015659 0.00014381 deg
tp 2459259.127707372263
(2021-Feb-13.62770737)
0.0006884 TDB
period 1720.406664598261
4.71
2.3682e-05
6.484e-08
d
yr
n .2092528513216758 2.8805e-09 deg/d
Q 2.861079795926093 2.6256e-08 au
  Orbit Determination Parameters
   # obs. used (total)      266  
   data-arc span      6106 days (16.72 yr)  
   first obs. used      2002-10-11  
   last obs. used      2019-06-30  
   planetary ephem.      DE431  
   SB-pert. ephem.      SB431-N16  
   condition code      0  
   norm. resid. RMS      .56937  
   source      ORB  
   producer      Otto Matic  
   solution date      2020-Feb-24 16:53:20  

Additional Information
 Earth MOID = 1.74984 au 
 Jupiter MOID = 2.19845 au 
 T_jup = 3.320 
[ show covariance matrix ]

Ephemeris | Orbit Diagram | Orbital Elements | Mission Design | Physical Parameters | Discovery Circumstances | Close-Approach Data ]

Physical Parameter Table
Parameter Symbol Value Units Sigma Reference Notes
absolute magnitude H 15.9   n/a MPO475463  

172715 (2004 BP67)          Discovered 2004-Jan-24 by LINEAR at Socorro
Reference: 20071224/Numbers.arcLast Updated: 2007-12-22

[ show close-approach data ]
Ephemeris | Orbit Diagram | Orbital Elements | Mission Design | Physical Parameters | Discovery Circumstances | Close-Approach Data ]
ABOUT SSD CREDITS/AWARDS PRIVACY/COPYRIGHT GLOSSARY LINKS
FirstGov 2020-Feb-25 03:36 UT
(server date/time)  
NASA Home Page
Site Manager:   Ryan S. Park
Webmaster  Alan B. Chamberlin